FREGAT DEB, 46111

Orbit data source: Space-Track

FREGAT DEB, 46111 is space debris in LEO originally from a launch on Mon, 18 Jul 2011 UTC launched from the Tyuratam Missile And Space Complex (TTMTR). Debris objects in space refer to the collection of defunct objects orbiting the Earth. Examples of debris include non-operational satellites, rocket bodies, and fragments generated from explosions, collisions, or faulty payload assembly.

Loading next visibility...
Identifier
46111, 2011-037JW
Orbit
LEO
Country
Flag of CISCIS
Related business
Manufacturer
Lavochkin
Mission
Spacecraft
Bus & Motor
Unknown
Mass
Unknown
Launch date (UTC)
2011-07-18 (15 years ago)
Launch vehicle
Unknown
Launch site
Tyuratam Missile And Space Complex (TTMTR)
Object type
Payload
Rocket body
Debris
Shape & HBR
Unknown shape, 0.1 m
Radar Cross Section
Small (<0.1 m²)

Expand to show TLE details & history
Last TLE update: 1 day ago

TLE from 1 day ago
0 FREGAT DEB
1 46111U 11037JW  26125.36485704 -.00018456  00000-0 -58117+0 0  9995
2 46111  50.7391 262.5055 1222933  37.1440 330.7919 10.16882886171476
Epoch: 2026-05-05T08:45Z
TLE epoch observation values (Epoch: 2026-05-05T08:45:23.648Z)
Latitude
0.00003°
Longitude
-92.08377°
Altitude
1,699.134 km
Speed
7.378 km/s
True Right ascension
17h 30m 01s
True Declination
0° 00' 00"
Sunlit
Object was in full shadow at epoch
Visualization orbit readout
Latitude
Unknown
Longitude
Unknown
Altitude
Unknown
Speed
Unknown
Apparent Right ascension
Unknown
Apparent Declination
Unknown
Sunlit
N/A
Visualization observer readout
Local Sidereal Time
18:23:26
Azimuth
Unknown
Elevation
Unknown
Doppler factor
Unknown
Orbital elements
Apogee altitude
3,722.58 km
Perigee altitude
1,521.284 km
Semi-major axis
9,000.069 km
Eccentricity
0.12229
Inclination
50.7391°
RAAN
262.5055°
Arg. of periapsis
37.144°
True anomaly
322.93321°
Mean anomaly
330.7919°
Eccentric anomaly
326.97289°
Mean motion
2.54199 °/min
Orbital period
141.62 mins
BSTAR
-0.58117
Loading maneuver chart data...
Computing Atmospheric mass density...
Loading historical data...
Loading historical data...
Loading historical data...
Loading historical data...
Loading historical data...
Loading historical data...
Loading historical data...

Documentation

Showing up to 5 results
|